Volver al catálogo

SL-8 DEB

ActivoLEO
NORAD 39838·DEBRIS·🇷🇺 Russia

Lanzado Feb 12, 1991 desde Plesetsk Cosmodrome

Loading…

Próximos Pases (próximas 24 horas)

TLE

ObsoletoSource: Space-Track

Época: Sep 8, 2026, 07:47 UTC

1 39838U 91009DW  26251.32445653 -.00000024  00000-0 -11604-3 0  9991
2 39838  74.1130 104.4903 0232775  55.5800 306.6995 12.10661382298534

Sigue SL-8 DEB en tiempo real con AllMySat

Download on the App Store